Simultaneous Nadir Overpasses (SNOs) Predictions

Prediction of SNOs between AQUA and METOP-C Satellite Orbit:

Table of predicted SNOs for the next 14.0 days since TLE Epoch: 7/16/2022
Index Date (AQUA) Time (AQUA) Lat,Lon (AQUA) SZA (AQUA ) Date (METOP-C) Time (METOP-C) Lat,Lon (METOP-C) SZA (METOP-C ) Distance(km) Time Diff (sec)
1 07/16/2022 20:21:26 -73.94, 49.40 127.28 07/16/2022 20:20:50 -73.95, 49.35 127.26 2.02 36
2 07/16/2022 21:10:55 74.03,-143.17 52.82 07/16/2022 21:11:28 74.01,-143.16 52.80 1.91 33
3 07/19/2022 15:05:39 73.90, -51.57 53.18 07/19/2022 15:04:30 73.92, -51.63 53.21 2.74 69
4 07/19/2022 15:55:06 -74.01, 115.84 126.71 07/19/2022 15:55:11 -73.99, 115.85 126.73 2.23 5
5 07/19/2022 16:44:35 74.10, -76.74 53.40 07/19/2022 16:45:48 74.10, -76.54 53.38 6.12 73
6 07/22/2022 10:39:18 73.96, 14.92 53.77 07/22/2022 10:38:51 73.96, 14.86 53.78 1.78 27
7 07/22/2022 11:28:45 -74.05,-177.66 126.12 07/22/2022 11:29:31 -74.07,-177.55 126.12 3.72 46
8 07/25/2022 05:23:27 -73.93, -86.05 125.68 07/25/2022 05:22:33 -73.92, -86.17 125.68 3.83 54
9 07/25/2022 06:12:56 74.04, 81.35 54.44 07/25/2022 06:13:10 74.04, 81.46 54.44 3.52 14
10 07/25/2022 07:02:34 -74.69,-112.57 124.84 07/25/2022 07:03:39 -74.68,-109.56 124.97 88.38 65
11 07/28/2022 00:07:30 73.47, 173.91 54.45 07/28/2022 00:06:22 73.44, 171.80 54.52 67.17 68
12 07/28/2022 00:57:05 -73.98, -19.55 125.00 07/28/2022 00:56:53 -73.99, -19.59 124.99 1.64 12
13 07/28/2022 01:46:33 74.04, 147.95 55.07 07/28/2022 01:47:31 74.06, 147.93 55.09 2.86 58



Historial Predications of SNOs between AQUA and METOP-C
